EW1179 Weather Reports


Display with metric or nautical units.
time (UTC)temp
F
wind
direction
speed
MPH
gust
MPH
rain 1hr
in
rain 24hr
in
rain mn
in
humidity
%
barometer
mb
20260903020058 67 225 0.0 5.0 0.00 0.00 0.00 64 1012.9
20260903014539 68 252 1.0 6.0 0.00 0.00 0.00 63 1013.0
20260903013037 69 229 2.0 7.0 0.00 0.00 0.00 63 1013.0
20260903011539 69 227 1.0 11.0 0.00 0.00 0.00 63 1013.0
20260903010035 69 248 0.0 8.0 0.00 0.00 0.00 62 1013.1
20260903004535 70 263 1.0 7.0 0.00 0.00 0.00 62 1013.3
20260903003034 71 244 2.0 11.0 0.00 0.00 0.00 60 1013.2
20260903001544 72 285 1.0 8.0 0.00 0.00 0.00 59 1013.2
20260903000040 72 236 3.0 11.0 0.00 0.00 0.00 57 1013.3
20260902234529 73 263 2.0 8.0 0.00 0.00 0.00 57 1013.4
20260902233029 73 219 3.0 11.0 0.00 0.00 0.00 56 1013.5
20260902231530 74 232 2.0 8.0 0.00 0.00 0.00 53 1013.7
20260902230028 75 229 3.0 13.0 0.00 0.00 0.00 51 1013.8
20260902224524 76 271 2.0 8.0 0.00 0.00 0.00 44 1013.9
20260902223022 76 207 3.0 9.0 0.00 0.00 0.00 46 1014.1
20260902221536 76 203 2.0 11.0 0.00 0.00 0.00 47 1014.3
20260902220021 77 230 3.0 9.0 0.00 0.00 0.00 46 1014.4
20260902214520 77 219 3.0 7.0 0.00 0.00 0.00 45 1014.4
20260902213020 78 307 3.0 9.0 0.00 0.00 0.00 44 1014.6
20260902211518 78 244 2.0 12.0 0.00 0.00 0.00 43 1014.6
20260902210017 78 248 2.0 7.0 0.00 0.00 0.00 43 1014.6
20260902204515 79 237 3.0 6.0 0.00 0.00 0.00 43 1014.7
20260902203014 78 227 0.0 7.0 0.00 0.00 0.00 44 1014.9
20260902201513 79 247 1.0 9.0 0.00 0.00 0.00 43 1014.8
20260902200012 79 91 0.0 3.0 0.00 0.00 0.00 38 1014.9
20260902194513 78 134 0.0 3.0 0.00 0.00 0.00 39 1015.0
20260902193005 76 120 0.0 4.0 0.00 0.00 0.00 41 1015.1
20260902191503 76 77 0.0 3.0 0.00 0.00 0.00 42 1015.4
20260902190059 75 153 0.0 2.0 0.00 0.00 0.00 44 1015.6
20260902184555 74 192 0.0 2.0 0.00 0.00 0.00 45 1015.8
20260902183127 72 97 1.0 5.0 0.00 0.00 0.00 46 1016.1
20260902181547 71 49 0.0 7.0 0.00 0.00 0.00 48 1016.2
20260902180044 70 97 0.0 5.0 0.00 0.00 0.00 51 1016.2
20260902174538 69 316 1.0 4.0 0.00 0.00 0.00 53 1016.2
20260902173050 67 124 0.0 6.0 0.00 0.00 0.00 56 1016.2
20260902171531 67 101 0.0 7.0 0.00 0.00 0.00 57 1016.3
20260902170027 66 64 0.0 4.0 0.00 0.00 0.00 59 1016.3
20260902164522 65 60 0.0 3.0 0.00 0.00 0.00 63 1016.3
20260902163017 63 167 0.0 3.0 0.00 0.00 0.00 66 1016.3
20260902161515 61 32 0.0 0.0 0.00 0.00 0.00 70 1016.2
20260902160010 59 111 0.0 3.0 0.00 0.00 0.00 74 1016.2
20260902154504 57 90 0.0 0.0 0.00 0.00 0.00 79 1016.1
20260902153100 54 102 0.0 0.0 0.00 0.00 0.00 86 1016.2
20260902151556 52 279 0.0 0.0 0.00 0.00 0.00 88 1016.0
20260902150051 50 279 0.0 0.0 0.00 0.00 0.00 89 1016.0
20260902144548 48 279 0.0 0.0 0.00 0.00 0.00 90 1016.1
20260902143042 47 279 0.0 0.0 0.00 0.00 0.00 90 1015.9
20260902141539 46 279 0.0 0.0 0.00 0.00 0.00 90 1015.6
20260902140038 45 279 0.0 0.0 0.00 0.00 0.00 89 1015.6
20260902134531 45 169 0.0 0.0 0.00 0.00 0.00 89 1015.6
20260902133030 46 306 0.0 0.0 0.00 0.00 0.00 89 1015.7
20260902131529 46 286 0.0 0.0 0.00 0.00 0.00 89 1015.7
20260902130038 46 286 0.0 0.0 0.00 0.00 0.00 89 1015.8
20260902124527 46 286 0.0 0.0 0.00 0.00 0.00 88 1015.7
20260902123030 46 286 0.0 0.0 0.00 0.00 0.00 88 1015.6
20260902121524 46 286 0.0 0.0 0.00 0.00 0.00 88 1015.7
20260902120024 46 286 0.0 0.0 0.00 0.00 0.00 88 1015.7
20260902114527 46 286 0.0 0.0 0.00 0.00 0.00 88 1015.6
20260902113021 47 286 0.0 0.0 0.00 0.00 0.00 88 1015.5
20260902111522 47 286 0.0 0.0 0.00 0.00 0.00 88 1015.4
20260902110028 47 255 0.0 0.0 0.00 0.00 0.00 87 1015.3
20260902104528 47 255 0.0 0.0 0.00 0.00 0.00 87 1015.3
20260902103017 47 255 0.0 0.0 0.00 0.00 0.00 87 1015.1
20260902101514 48 253 0.0 0.0 0.00 0.00 0.00 87 1015.1
20260902100014 48 330 0.0 0.0 0.00 0.00 0.00 87 1015.1
20260902094512 48 330 0.0 0.0 0.00 0.00 0.00 87 1015.2
20260902093017 48 330 0.0 0.0 0.00 0.00 0.00 86 1015.3
20260902091510 49 330 0.0 0.0 0.00 0.00 0.00 86 1015.4
20260902090008 49 330 0.0 0.0 0.00 0.00 0.00 86 1015.3
20260902084506 49 330 0.0 0.0 0.00 0.00 0.00 86 1015.5
20260902083005 49 348 0.0 0.0 0.00 0.00 0.00 85 1015.4
20260902081504 50 293 0.0 0.0 0.00 0.00 0.00 85 1015.3
20260902080002 50 293 0.0 0.0 0.00 0.00 0.00 85 1015.4
20260902074600 50 293 0.0 0.0 0.00 0.00 0.00 84 1015.3
20260902073057 51 293 0.0 0.0 0.00 0.00 0.00 84 1015.1
20260902071555 51 293 0.0 0.0 0.00 0.00 0.00 84 1015.1
20260902070053 52 314 0.0 0.0 0.00 0.00 0.00 83 1015.1
20260902064552 52 314 0.0 0.0 0.00 0.00 0.00 83 1015.0
20260902063104 53 314 0.0 0.0 0.00 0.00 0.00 82 1014.9
20260902061548 53 314 0.0 0.0 0.00 0.00 0.00 82 1015.0
20260902060059 54 323 0.0 0.0 0.00 0.00 0.00 81 1015.0
20260902054545 55 323 0.0 0.0 0.00 0.00 0.00 81 1014.9
20260902053046 55 323 0.0 0.0 0.00 0.00 0.00 81 1015.0
20260902051545 56 323 0.0 0.0 0.00 0.00 0.00 81 1015.0
20260902050043 56 323 0.0 0.0 0.00 0.00 0.00 81 1014.9
20260902044541 56 323 0.0 0.0 0.00 0.00 0.00 81 1014.7
20260902043048 57 40 0.0 0.0 0.00 0.00 0.00 80 1014.5
20260902041547 57 55 0.0 0.0 0.00 0.00 0.00 80 1014.3
20260902040040 57 114 0.0 0.0 0.00 0.00 0.00 80 1014.3
20260902034543 57 239 0.0 1.0 0.00 0.00 0.00 80 1013.9
20260902033048 57 148 0.0 6.0 0.00 0.00 0.00 79 1013.5
20260902031538 58 196 0.0 9.0 0.00 0.00 0.00 78 1013.3
20260902030045 58 213 0.0 6.0 0.00 0.00 0.00 77 1013.2
20260902024538 59 47 0.0 3.0 0.00 0.00 0.00 76 1013.2
20260902023044 59 98 0.0 1.0 0.00 0.00 0.00 76 1013.2
20260902021546 60 103 0.0 0.0 0.00 0.00 0.00 75 1013.2